FW0464 Weather Reports


time (UTC)temp
F
wind
direction
speed
knots
gust
knots
rain 1hr
in
rain 24hr
in
rain mn
in
humidity
%
barometer
mb
20260504034536 54 360 9.6 17.4 0.00 0.00 0.00 42 1002.6
20260504033031 55 351 12.2 19.1 0.00 0.00 0.00 43 1002.6
20260504031531 55 355 10.4 18.2 0.00 0.00 0.00 43 1002.3
20260504030030 56 5 9.6 14.8 0.00 0.00 0.00 42 1001.9
20260504024530 58 355 11.3 16.5 0.00 0.00 0.00 41 1001.7
20260504023031 59 344 13.0 23.5 0.00 0.00 0.00 40 1001.4
20260504021534 60 355 16.5 34.8 0.00 0.00 0.00 39 1001.1
20260504020037 64 315 7.8 14.8 0.00 0.00 0.00 36 1000.2
20260504014536 64 300 7.8 20.0 0.00 0.00 0.00 35 1000.0
20260504013029 65 311 13.0 20.0 0.00 0.00 0.00 34 999.8
20260504011526 67 281 11.3 24.3 0.00 0.00 0.00 33 999.9
20260504010025 68 272 14.8 24.3 0.00 0.00 0.00 32 999.8
20260504004525 68 273 14.8 25.2 0.00 0.00 0.00 33 1000.0
20260504003028 69 267 13.9 27.8 0.00 0.00 0.00 33 1000.0
20260504001524 70 355 15.6 27.8 0.00 0.00 0.00 33 1000.0
20260504000023 70 294 15.6 26.9 0.00 0.00 0.00 33 1000.2
20260503234523 71 313 17.4 30.4 0.00 0.00 0.00 31 1000.1
20260503233023 72 294 16.5 29.5 0.00 0.00 0.00 27 1000.1
20260503231523 72 254 13.9 25.2 0.00 0.00 0.00 24 1000.2
20260503230022 73 253 13.9 24.3 0.00 0.00 0.00 23 1000.1
20260503224521 73 232 12.2 30.4 0.00 0.00 0.00 25 1000.2
20260503223020 73 248 15.6 30.4 0.00 0.00 0.00 26 1000.5
20260503221518 73 259 10.4 24.3 0.00 0.00 0.00 25 1000.8
20260503220017 73 271 13.9 27.8 0.00 0.00 0.00 25 1001.1
20260503214533 73 254 12.2 25.2 0.00 0.00 0.00 24 1001.5
20260503213012 72 257 20.0 32.2 0.00 0.00 0.00 27 1001.6
20260503211512 72 236 14.8 38.2 0.00 0.00 0.00 31 1002.0
20260503210008 71 252 22.6 33.0 0.00 0.00 0.00 34 1002.4
20260503204507 70 254 16.5 31.3 0.00 0.00 0.00 34 1002.8
20260503203002 70 246 19.1 26.1 0.00 0.00 0.00 33 1003.2
20260503201601 67 245 16.5 26.1 0.00 0.00 0.00 33 1003.4
20260503200115 68 256 12.2 23.5 0.00 0.00 0.00 29 1003.9
20260503194603 67 247 15.6 23.5 0.00 0.00 0.00 31 1004.1
20260503193103 67 233 17.4 25.2 0.00 0.00 0.00 35 1004.7
20260503191555 66 247 10.4 20.9 0.00 0.00 0.00 35 1005.2
20260503190051 66 259 17.4 26.1 0.00 0.00 0.00 33 1005.5
20260503184558 67 251 14.8 25.2 0.00 0.00 0.00 36 1005.6
20260503183047 66 254 15.6 27.8 0.00 0.00 0.00 35 1006.4
20260503181607 65 260 13.0 25.2 0.00 0.00 0.00 36 1006.7
20260503180056 66 242 15.6 26.1 0.00 0.00 0.00 38 1007.0
20260503174547 65 234 15.6 26.1 0.00 0.00 0.00 41 1007.1
20260503173052 65 266 17.4 26.9 0.00 0.00 0.00 41 1007.3
20260503171537 64 254 17.4 26.9 0.00 0.00 0.00 42 1007.6
20260503081536 44 211 5.2 6.1 0.00 0.00 0.00 59 1012.2
20260503071520 46 198 4.3 5.2 0.00 0.00 0.00 57 1012.5
20260503054514 51 157 1.7 4.3 0.00 0.00 0.00 47 1012.6
20260503053006 52 157 1.7 2.6 0.00 0.00 0.00 47 1012.7
20260503051508 52 151 0.9 2.6 0.00 0.00 0.00 47 1012.7
20260503050005 51 111 0.9 2.6 0.00 0.00 0.00 48 1012.9
20260503044504 50 341 0.0 0.9 0.00 0.00 0.00 50 1012.9
20260503043004 53 341 0.0 1.7 0.00 0.00 0.00 46 1013.0
20260503041503 53 341 0.0 1.7 0.00 0.00 0.00 46 1013.1
20260503040005 53 341 0.0 0.0 0.00 0.00 0.00 46 1013.2